Location: Melbourne
(37.8170°S, 144.9670°E)
Time: 05:43:42
(UTC+11:00)

Aureole 2 Rocket - Visible Passes

Search period start: 24 November 2014 00:00
Search period end: 04 December 2014 00:00
Orbit: 347 x 735 km, 73.9° (Epoch: 22 November)

Date Brightness Start Highest point End Pass type
(mag) Time Alt. Az. Time Alt. Az. Time Alt. Az.
24 Nov 3.1 03:15:31 77° NW 03:15:51 86° WSW 03:20:39 10° SSE visible
25 Nov 3.2 03:08:20 77° W 03:08:24 77° WSW 03:13:09 10° SSE visible
26 Nov 5.9 01:25:32 11° E 01:25:32 11° E 01:25:51 10° ESE visible
26 Nov 3.3 03:01:03 68° SW 03:01:03 68° SW 03:05:33 10° SSE visible
27 Nov 5.8 01:18:08 11° ESE 01:18:08 11° ESE 01:18:41 10° ESE visible
27 Nov 3.5 02:53:38 59° SW 02:53:38 59° SW 02:57:52 10° S visible
28 Nov 5.8 01:10:36 12° ESE 01:10:36 12° ESE 01:11:18 10° ESE visible
28 Nov 3.7 02:46:06 52° SW 02:46:06 52° SW 02:50:05 10° S visible
29 Nov 5.7 01:02:58 13° ESE 01:02:58 13° ESE 01:03:46 10° ESE visible
29 Nov 3.9 02:38:27 45° SW 02:38:27 45° SW 02:42:13 10° S visible
30 Nov 5.7 00:55:13 13° ESE 00:55:13 13° ESE 00:56:05 10° ESE visible
30 Nov 4.1 02:30:42 40° SW 02:30:42 40° SW 02:34:15 10° S visible
01 Dec 5.6 00:47:21 14° ESE 00:47:21 14° ESE 00:48:17 10° SE visible
01 Dec 4.3 02:22:50 36° SW 02:22:50 36° SW 02:26:12 10° S visible
02 Dec 5.5 00:39:22 14° ESE 00:39:22 14° ESE 00:40:23 10° SE visible
02 Dec 4.5 02:14:50 33° SW 02:14:50 33° SW 02:18:03 10° S visible
03 Dec 5.5 00:31:17 15° ESE 00:31:17 15° ESE 00:32:22 10° SE visible
03 Dec 4.6 02:06:44 30° SW 02:06:44 30° SW 02:09:48 10° S visible
